TimeCDT,TemperatureF,Dew PointF,Humidity,Sea Level PressureIn,VisibilityMPH,Wind Direction,Wind SpeedMPH,Gust SpeedMPH,PrecipitationIn,Events,Conditions,WindDirDegrees,DateUTC
12:53 AM,66.0,39.0,37,30.12,10.0,ENE,11.5,-,N/A,,Clear,60,2012-09-23 05:53:00
1:53 AM,64.0,39.0,40,30.12,10.0,ENE,15.0,-,N/A,,Clear,60,2012-09-23 06:53:00
2:53 AM,62.1,39.9,44,30.13,10.0,ENE,12.7,-,N/A,,Clear,60,2012-09-23 07:53:00
3:53 AM,62.1,39.0,43,30.13,10.0,NE,12.7,-,N/A,,Clear,50,2012-09-23 08:53:00
4:53 AM,61.0,39.0,44,30.14,10.0,NE,10.4,-,N/A,,Clear,40,2012-09-23 09:53:00
5:53 AM,60.1,39.0,46,30.15,10.0,NNE,8.1,-,N/A,,Clear,30,2012-09-23 10:53:00
6:53 AM,60.1,37.9,44,30.18,10.0,NE,11.5,-,N/A,,Clear,50,2012-09-23 11:53:00
7:53 AM,60.1,36.0,41,30.19,10.0,NE,12.7,-,N/A,,Clear,50,2012-09-23 12:53:00
8:53 AM,60.1,35.1,39,30.19,10.0,ENE,12.7,-,N/A,,Clear,70,2012-09-23 13:53:00
9:53 AM,64.0,36.0,35,30.19,10.0,East,12.7,-,N/A,,Clear,90,2012-09-23 14:53:00
10:53 AM,66.0,39.0,37,30.19,10.0,ESE,10.4,-,N/A,,Clear,120,2012-09-23 15:53:00
11:53 AM,72.0,42.1,34,30.18,10.0,SE,9.2,-,N/A,,Clear,130,2012-09-23 16:53:00
12:53 PM,73.0,43.0,34,30.17,10.0,SSE,6.9,-,N/A,,Clear,160,2012-09-23 17:53:00
1:53 PM,78.1,44.1,30,30.14,10.0,Calm,Calm,-,N/A,,Clear,0,2012-09-23 18:53:00
2:53 PM,84.0,44.1,25,30.10,10.0,South,11.5,-,N/A,,Clear,180,2012-09-23 19:53:00
3:53 PM,86.0,44.1,23,30.07,10.0,South,8.1,-,N/A,,Clear,180,2012-09-23 20:53:00
4:53 PM,89.1,43.0,20,30.04,10.0,South,11.5,-,N/A,,Clear,190,2012-09-23 21:53:00
5:53 PM,89.1,42.1,19,30.03,10.0,SSE,13.8,-,N/A,,Clear,160,2012-09-23 22:53:00
6:53 PM,84.9,42.1,22,30.03,10.0,South,12.7,-,N/A,,Clear,170,2012-09-23 23:53:00
7:53 PM,80.1,44.1,28,30.03,10.0,SSE,11.5,-,N/A,,Clear,160,2012-09-24 00:53:00
8:53 PM,79.0,43.0,28,30.03,10.0,South,12.7,-,N/A,,Clear,170,2012-09-24 01:53:00
9:53 PM,78.1,44.1,30,30.04,10.0,South,11.5,-,N/A,,Clear,170,2012-09-24 02:53:00
10:53 PM,77.0,45.0,32,30.04,10.0,South,10.4,-,N/A,,Clear,170,2012-09-24 03:53:00
11:53 PM,72.0,46.0,40,30.04,10.0,SSE,9.2,-,N/A,,Clear,150,2012-09-24 04:53:00